SCP
0 0 0 0 0 0 0 0 0 0 0 0 0 0 0 0 0 0 0 0 0 0 0 0 0 0 0 0 0 0 0 0 0 0 0 0 0 0
0 0 0 0 0 0 0 0 0 0 0 0 0 0 0 0 0 0 0 0 0 0 0 0 0 0 0 0 0 0 0 0 0 0 0 0 0 0
0 0 0 0 0 0 0 0 0 0 0 0 0 0 0 0 0 0 0 0 0 0 0 0 0 0 0 0 0 0 0 0 0 0 0 0 0 0
0 0 0 0 0 0 0 0 0 0 0 0 0 0 0 0 0 0 0 0 0 0 0 0 0 0 0 0 0 0 0 0 0 0 0 0 0 0
0 0 0 0 0 0 0 0 0 0 0 0 0 0 0 0 0 0 0 0 0 0 0 0 0 0 0 0 0 0 0 0 0 0 0 0 0 0
0 0 0 0 0 0 0 0 0 0 0 0 0 0 0 0 0 0 0 0 0 0 0 0 0 0 0 0 0 0 0 0 0 0 0 0 0 0
0 0 0 0 0 0 0 0 0 0 0 0 0 0 0 0 0 0 0 0 0 0 0 0 0 0 0 0 0 0 0 0 0 0 0 0 0 0
0 0 0 0 0 0 0 0 0 0 0 0 0 0 0 0 0 0 0 0 0 0 0 0 0 0 0 0 0 0 0 0 0 0 0 0 0 0
0 0 0 0 0 0 0 0 0 0 0 0 0 0 0 0 0 0 0 0 0 0 0 0 0 0 0 0 0 0 0 0 0 0 0 0 0 0
0 0 0 0 0 0 0 0 0 0 0 0 0 0 0 0 0 0 0 0 0 0 0 0 0 0 0 0 0 0 0 0 0 0 0 0 0 0
0 0 0 0 0 0 0 0 0 0 0 0 0 0 0 0 0 0 0 0 0 0 0 0 0 0 0 0 0 0 0 0 0 0 0 0 0 0
0 0 0 0 0 0 0 0 0 0 0 0 0 0 0 0 0 0 0 0 0 0 0 0 0 0 0 0 0 0 0 0 0 0 0 0 0 0
0 0 0 0 0 0 0 0 0 0 0 0 0 0 0 0 0 0 0 0 0 0 0 0 0 0 0 0 0 0 0 0 0 0 0 0 0 0
0 0 0 0 0 0 0 0 0 0 0 0 0 0 0 0 0 0 0 0 0 0 0 0 0 0 0 0 0 0 0 0 0 0 0 0 0 0
0 0 0 0 0 0 0 0 0 0 0 0 0 0 0 0 0 0 0 0 0 0 0 0 0 0 0 0 0 0 0 0 0 0 0 0 0 0
0 0 0 0 0 0 0 0 0 0 0 0 0 0 0 0 0 0 0 0 0 0 0 0 0 0 0 0 0 0 0 0 0 0 0 0 0 0
0 0 0 0 0 0 0 0 0 0 0 0 0 0 0 0 0 0 0 0 0 0 0 0 0 0 0 0 0 0 0 0 0 0 0 0 0 0
0 0 0 0 0 0 0 0 0 0 0 0 0 0 0 0 0 0 0 0 0 0 0 0 0 0 0 0 0 0 0 0 0 0 0 0 0 0
0 0 0 0 0 0 0 0 0 0 0 0 0 0 0 0 0 0 0 0 0 0 0 0 0 0 0 0 0 0 0 0 0 0 0 0 0 0
0 0 0 0 0 0 0 0 0 0 0 0 0 0 0 0 0 0 0 0 0 0 0 0 0 0 0 0 0 0 0 0 0 0 0 0 0 0
0 0 0 0 0 0 0 0 0 0 0 0 0 0 0 0 0 0 0 0 0 0 0 0 0 0 0 0 0 0 0 0 0 0 0 0 0 0
0 0 0 0 0 0 0 0 0 0 0 0 0 0 0 0 0 0 0 0 0 0 0 0 0 0 0 0 0 0 0 0 0 0 0 0 0 0
0 0 0 0 0 0 0 0 0 0 0 0 0 0 0 0 0 0 0 0 0 0 0 0 0 0 0 0 0 0 0 0 0 0 0 0 0 0
Wind_Speed
3 3 2 2 1 1 1 1 2 3 3 2 1 1 1 1 2 2 2 4 6 6 7 6 5 5 6 6 7 7 7 7 7 8 7 8 9 10
2 2 2 1 1 1 1 1 2 3 4 2 2 2 2 2 3 2 2 5 6 6 6 5 4 4 5 6 6 6 6 7 7 8 8 8 9 10
2 2 3 2 2 1 1 1 2 2 5 4 2 2 2 2 3 2 2 2 3 5 6 5 4 5 5 6 6 6 6 7 7 7 8 9 10 10
3 3 3 2 3 2 2 2 3 3 3 6 4 2 3 2 2 3 3 2 2 4 5 5 5 6 6 6 6 6 6 6 7 7 8 9 9 10
3 3 3 3 3 3 3 3 2 3 2 4 5 3 2 2 2 3 3 2 3 3 5 5 5 6 6 6 6 6 5 6 6 7 8 8 9 10
3 3 3 3 4 3 3 3 3 3 3 3 4 3 3 2 1 2 3 2 3 3 4 4 5 5 6 6 6 5 5 6 6 7 7 8 9 10
2 3 3 4 5 4 3 3 3 3 3 3 4 3 3 2 2 2 3 3 3 2 2 2 2 2 3 5 5 5 5 6 6 7 8 8 9 9
3 3 3 4 5 6 7 6 5 5 4 4 4 5 5 4 3 2 2 2 3 1 1 3 2 3 3 2 5 6 6 6 6 7 8 8 9 10
3 3 3 3 4 4 5 6 6 9 9 6 6 6 5 4 3 3 3 3 4 2 1 4 2 3 3 3 6 6 5 6 6 7 8 8 9 9
4 4 4 4 4 4 3 4 4 5 6 6 6 6 5 4 3 4 4 4 3 2 2 3 2 3 3 3 5 6 6 6 7 7 8 8 9 10
4 4 4 5 7 7 4 4 5 5 6 8 8 8 8 7 5 2 2 2 3 2 2 2 2 2 3 3 4 5 6 6 7 8 8 9 10 10
4 4 7 7 8 8 5 5 6 5 4 4 5 6 6 6 6 4 4 3 2 3 2 2 1 1 3 2 2 2 3 5 7 8 9 9 10 6
4 4 4 8 9 10 8 6 8 6 4 4 4 3 3 3 3 3 3 3 3 3 2 1 1 1 2 3 3 2 2 2 3 4 6 9 10 7
5 4 4 8 10 10 8 8 10 8 3 3 3 4 3 3 3 3 3 3 4 4 3 3 2 2 2 3 3 2 2 2 2 3 3 7 8 9
5 7 8 10 9 7 9 10 8 4 4 4 5 5 4 3 3 2 2 2 2 2 3 3 3 2 3 3 3 3 3 3 2 3 3 4 4 4
5 7 9 10 8 8 8 6 5 5 5 5 4 3 2 2 3 2 2 2 2 2 2 3 3 3 3 4 4 5 3 3 3 3 4 4 4 3
4 3 3 4 4 4 4 4 4 4 5 4 4 4 3 3 3 3 2 3 3 2 2 1 2 3 4 4 4 5 4 4 4 3 3 5 5 4
6 4 5 5 6 5 5 5 5 5 5 5 4 4 4 4 4 3 3 3 4 3 3 2 1 1 2 4 6 6 4 4 4 3 3 4 5 4
7 6 6 6 6 6 6 6 5 5 5 5 5 5 4 4 4 4 4 4 4 4 3 2 2 2 3 4 3 5 4 3 3 3 3 4 5 5
6 6 7 6 6 6 6 6 5 5 4 5 5 5 5 4 4 4 4 5 4 4 3 3 3 4 4 4 3 3 5 4 3 4 4 4 4 7
6 7 7 6 6 6 6 6 6 5 5 5 5 5 5 5 5 5 5 6 5 4 4 4 4 4 2 1 3 3 3 5 5 4 3 3 4 4
6 7 7 6 6 6 6 5 5 5 5 5 5 5 5 5 5 6 5 5 5 4 4 3 2 2 2 4 4 4 4 3 4 6 6 6 3 3
6 6 6 6 6 5 5 6 6 6 5 5 5 5 5 5 5 5 5 5 4 4 3 3 2 2 3 3 4 4 4 4 3 3 3 6 9 11
Wind_Direction
215 224 232 246 243 241 226 205 225 277 281 269 277 273 293 303 295 291 290 298 297 296 299 304 309 313 309 304 299 296 294 295 297 296 296 298 294 293
217 216 229 232 234 229 227 233 221 237 269 273 270 284 290 291 287 292 285 294 287 288 293 289 288 299 304 304 303 301 300 299 295 291 294 297 297 293
231 220 230 227 226 229 229 233 245 241 262 279 278 289 288 290 298 293 288 285 285 284 289 287 283 287 290 294 298 299 298 296 293 293 295 296 297 298
226 224 235 232 229 228 227 231 239 240 251 275 285 283 275 274 283 290 289 283 277 278 283 284 285 286 283 285 286 288 292 296 298 298 298 300 302 302
223 224 232 226 236 235 235 239 243 250 247 263 278 272 270 272 289 291 283 282 284 279 274 275 283 282 281 281 279 284 293 296 296 296 297 299 302 304
235 229 229 226 232 235 240 241 243 252 255 261 270 271 266 263 257 278 289 281 281 282 274 276 281 284 286 284 285 288 292 292 292 294 297 301 303 304
252 245 238 235 236 240 242 237 237 246 255 260 265 271 265 263 255 252 273 284 276 262 276 280 281 278 280 279 278 279 285 290 292 294 298 302 304 302
248 252 248 244 248 253 254 251 243 242 248 251 257 259 262 253 245 244 257 277 282 277 269 277 257 262 266 255 271 278 281 286 290 295 300 303 305 305
241 245 259 253 250 244 255 259 262 258 250 245 252 257 260 252 246 250 243 242 251 255 260 274 263 261 264 271 273 273 279 286 290 296 300 305 308 308
239 239 245 251 248 247 246 251 252 257 255 249 246 253 256 253 237 240 240 247 259 251 206 259 269 266 281 277 273 271 281 288 292 298 302 306 309 308
243 239 240 244 251 256 248 248 257 261 260 254 254 256 256 256 246 238 235 245 266 258 213 229 263 289 284 272 271 271 279 290 296 300 305 309 310 309
249 242 244 251 258 258 247 241 253 257 258 269 266 267 263 259 246 222 215 220 241 256 221 205 245 308 300 284 282 290 286 292 299 303 308 311 313 310
248 248 246 255 262 264 262 250 253 256 243 244 253 256 258 251 243 231 218 211 216 234 212 180 225 237 249 288 290 274 270 285 299 302 308 310 311 310
250 251 251 258 262 264 264 261 264 265 246 239 245 248 249 248 243 233 228 226 220 224 211 187 208 219 243 273 281 288 287 280 285 292 296 304 303 302
250 252 259 263 263 262 260 262 261 251 235 234 239 242 238 236 233 234 227 225 232 235 216 208 210 221 227 248 266 276 293 289 276 285 292 293 290 294
253 258 263 261 258 255 257 254 243 236 235 237 237 237 230 228 230 220 218 212 240 260 236 218 213 215 243 254 256 268 267 272 286 291 291 288 285 280
255 255 254 254 246 244 243 243 237 237 238 233 231 231 232 234 232 216 212 210 224 238 246 240 231 228 237 245 260 259 264 267 266 279 290 292 286 279
261 249 247 245 244 245 245 243 235 232 229 226 225 224 227 230 230 221 214 215 225 228 228 219 213 281 283 262 231 246 255 261 269 274 274 281 288 289
252 246 246 245 243 240 240 238 238 232 224 222 224 224 222 225 225 224 217 217 225 227 221 206 199 212 254 275 268 219 234 256 271 277 272 268 276 286
240 243 245 243 242 241 239 238 237 229 223 225 227 223 217 221 224 222 217 216 222 226 226 215 212 215 231 249 268 268 236 239 256 271 279 280 278 285
243 242 243 242 240 240 239 236 234 229 224 223 224 222 219 219 225 224 219 218 220 223 228 232 228 220 215 236 262 268 260 245 246 251 267 288 296 298
246 245 243 238 236 235 234 233 232 228 222 222 223 222 218 217 223 222 216 215 220 221 227 229 210 201 209 234 253 266 277 286 277 266 255 244 251 265
247 245 243 238 235 232 229 228 228 228 223 221 221 219 216 218 221 220 216 214 214 213 210 212 213 218 227 232 250 264 270 284 292 298 285 271 266 268